Location: Colle Santa Colomba
(42.0333°N, 12.5667°E)
Time: 22:14:36
(UTC+00:00)

DMSP B5D1-3 - Pass Details

Date: 25 October 2021
Orbit: 767 x 780 km, 98.5° (Epoch: 05 December)

Event Time Altitude Azimuth Distance (km) Brightness Sun altitude
Rises 17:49:24 0° 16° (NNE) 3,266 7.6 -18.5°
Reaches altitude 10° 17:51:45 10° 20° (NNE) 2,336 6.8 -19.0°
Maximum altitude 17:56:52 64° 102° (ESE) 864 4.4 -19.9°
Drops below altitude 10° 18:01:58 10° 183° (S) 2,324 7.0 -20.9°
Sets 18:04:17 0° 187° (S) 3,248 7.8 -21.3°
